Hourly Data Report for November 09, 2016

All times are specified in Local Standard Time (LST). Add 1 hour to adjust for Daylight Saving Time where and when it is observed.

VICTORIA UNIVERSITY CS
BRITISH COLUMBIA

48°27'25.200" N
123°18'16.600" W
60.10 m
1018598
71783
WYJ

Download Data

Hourly Data (November 2016)
Hourly Data Report for November 9, 2016
TIME Temp Definition
°C
Dew Point Definition
°C
Rel Hum Definition
%
Wind Dir Definition
10's deg

Wind Spd Definition
km/h
Visibility Definition
km
Stn Press Definition
kPa
Hmdx Definition


Wind Chill Definition


Weather Definition


00:00 12.4 11.9 97 2 3   100.86     LegendNANA
01:00 12.2 11.9 98 29 4   100.86     LegendNANA
02:00 12.2 11.9 98 8 4   100.92     LegendNANA
03:00 11.9 11.6 98 18 3   100.95     LegendNANA
04:00 11.7 11.5 99 15 2   100.96     LegendNANA
05:00 12.1 11.9 99 27 2   100.99     LegendNANA
06:00 12.2 12.0 99 33 3   101.02     LegendNANA
07:00 12.5 12.3 99 29 7   101.11     LegendNANA
08:00 12.5 12.4 99 20 3   101.18     LegendNANA
09:00 11.7 11.6 99 17 7   101.25     LegendNANA
10:00 12.4 12.3 100 17 5   101.26     LegendNANA
11:00 14.4 14.3 99 15 3   101.33     LegendNANA
12:00 15.4 12.7 84 21 6   101.39     LegendNANA
13:00 15.7 12.7 82 23 4   101.43     LegendNANA
14:00 14.6 12.8 89 8 2   101.47     LegendNANA
15:00 12.5 11.9 96 9 3   101.46     LegendNANA
16:00 12.6 12.3 98 9 3   101.48     LegendNANA
17:00 12.6 12.5 99 2 3   101.48     LegendNANA
18:00 12.5 12.3 99 1 4   101.46     LegendNANA
19:00 12.6 12.4 99 1 9   101.40     LegendNANA
20:00 12.3 12.2 99 34 9   101.40     LegendNANA
21:00 12.3 12.1 99 33 7   101.39     LegendNANA
22:00 12.1 11.9 99 35 9   101.34     LegendNANA
23:00 12.2 12.1 99 32 10   101.40     LegendNANA

Notes on Data Quality.

Legend

  • E = Estimated
  • M = Missing
  • NA = Not Available
Date modified: